TimeEDT,TemperatureF,Dew PointF,Humidity,Sea Level PressureIn,VisibilityMPH,Wind Direction,Wind SpeedMPH,Gust SpeedMPH,PrecipitationIn,Events,Conditions,WindDirDegrees,DateUTC
12:53 AM,61.0,60.1,97,29.85,5.0,SSW,4.6,-,0.02,Rain,Light Rain,210,2013-04-11 04:53:00
1:53 AM,61.0,60.1,97,29.83,7.0,Calm,Calm,-,0.00,,Mostly Cloudy,0,2013-04-11 05:53:00
2:33 AM,60.8,59.0,94,29.79,3.0,SW,3.5,-,N/A,,Partly Cloudy,220,2013-04-11 06:33:00
2:53 AM,61.0,59.0,93,29.76,6.0,WSW,4.6,-,N/A,,Mostly Cloudy,250,2013-04-11 06:53:00
3:53 AM,61.0,59.0,93,29.79,7.0,Calm,Calm,-,N/A,,Clear,0,2013-04-11 07:53:00
4:53 AM,61.0,59.0,93,29.83,7.0,Calm,Calm,-,N/A,,Clear,0,2013-04-11 08:53:00
5:53 AM,60.1,57.9,93,29.85,7.0,North,3.5,-,0.01,,Clear,360,2013-04-11 09:53:00
6:53 AM,60.1,59.0,96,29.87,6.0,Calm,Calm,-,N/A,,Mostly Cloudy,0,2013-04-11 10:53:00
7:15 AM,60.8,57.2,88,29.89,2.0,Calm,Calm,-,N/A,,Partly Cloudy,0,2013-04-11 11:15:00
7:25 AM,62.6,59.0,88,29.89,6.0,North,3.5,-,N/A,,Clear,10,2013-04-11 11:25:00
7:48 AM,62.6,59.0,88,29.90,9.0,NNE,5.8,-,N/A,,Mostly Cloudy,20,2013-04-11 11:48:00
7:53 AM,62.1,59.0,90,29.88,10.0,NNE,4.6,-,N/A,,Mostly Cloudy,30,2013-04-11 11:53:00
8:50 AM,62.6,57.2,82,29.89,10.0,NE,6.9,-,N/A,,Mostly Cloudy,50,2013-04-11 12:50:00
8:53 AM,62.1,57.0,84,29.88,10.0,ENE,6.9,-,N/A,,Mostly Cloudy,60,2013-04-11 12:53:00
9:21 AM,62.6,53.6,72,29.89,10.0,NE,5.8,-,N/A,,Scattered Clouds,40,2013-04-11 13:21:00
9:53 AM,64.0,55.0,73,29.89,10.0,NE,9.2,-,N/A,,Mostly Cloudy,50,2013-04-11 13:53:00
10:46 AM,60.8,55.4,82,29.93,5.0,East,11.5,-,N/A,,Haze,100,2013-04-11 14:46:00
10:53 AM,60.1,55.0,83,29.91,5.0,East,11.5,-,N/A,,Haze,90,2013-04-11 14:53:00
11:53 AM,57.9,52.0,81,29.93,8.0,East,11.5,-,N/A,,Overcast,90,2013-04-11 15:53:00
12:23 PM,57.2,50.0,77,29.94,10.0,ESE,10.4,-,N/A,,Overcast,110,2013-04-11 16:23:00
1:53 PM,60.1,48.9,67,29.92,10.0,East,11.5,-,N/A,,Overcast,100,2013-04-11 17:53:00
2:53 PM,61.0,50.0,67,29.90,10.0,East,12.7,19.6,N/A,,Overcast,90,2013-04-11 18:53:00
3:53 PM,59.0,50.0,72,29.90,10.0,East,9.2,18.4,N/A,,Overcast,90,2013-04-11 19:53:00
4:53 PM,59.0,48.9,69,29.91,10.0,SE,12.7,-,N/A,,Overcast,130,2013-04-11 20:53:00
5:53 PM,57.0,46.9,69,29.91,10.0,SE,17.3,23.0,N/A,,Overcast,140,2013-04-11 21:53:00
6:53 PM,53.1,46.0,77,29.93,10.0,SE,12.7,-,N/A,,Overcast,140,2013-04-11 22:53:00
7:02 PM,53.6,46.4,77,29.95,10.0,ESE,10.4,-,N/A,,Overcast,120,2013-04-11 23:02:00
7:53 PM,51.1,44.1,77,29.94,10.0,SE,12.7,-,N/A,,Overcast,130,2013-04-11 23:53:00
8:20 PM,50.0,44.6,82,29.95,10.0,SE,12.7,21.9,N/A,,Overcast,130,2013-04-12 00:20:00
8:53 PM,48.9,43.0,80,29.95,10.0,ESE,13.8,-,N/A,,Overcast,110,2013-04-12 00:53:00
9:53 PM,48.9,43.0,80,29.96,10.0,East,10.4,19.6,N/A,,Overcast,100,2013-04-12 01:53:00
10:29 PM,48.2,42.8,82,29.98,10.0,East,16.1,20.7,N/A,,Overcast,90,2013-04-12 02:29:00
10:53 PM,48.0,42.1,80,29.96,10.0,East,11.5,19.6,N/A,,Overcast,100,2013-04-12 02:53:00
11:41 PM,48.2,41.0,76,29.96,10.0,East,13.8,21.9,N/A,,Overcast,100,2013-04-12 03:41:00
11:53 PM,46.9,41.0,80,29.94,10.0,East,16.1,23.0,N/A,,Overcast,100,2013-04-12 03:53:00